Regional Weather Roundup
Issued by NWS Goodland, KS

Home | Current Version | Previous Version | Text Only | Print | Product List | Glossary Off
Versions: 1 2 3 4 5 6 7 8 9 10 11 12 13 14 15 16 17 18 19 20 21 22 23 24 25 26 27 28 29 30 31 32 33 34 35 36 37 38 39 40 41 42 43 44 45 46 47 48 49 50

000
ASUS43 KGLD 040808
RWRGLD

GOODLAND FORECAST AREA HOURLY WEATHER ROUNDUP
NATIONAL WEATHER SERVICE GOODLAND KS
200 AM MDT MON MAY 04 2015

...OFFICIAL OBSERVATIONS...

CITY           SKY/WX    TMP DP  RH WIND       PRES   REMARKS
GOODLAND KS    CLOUDY    56  45  66 NE14      30.02S
HILL CITY KS   LGT RAIN  64  49  57 VRB5G22   29.98R
IMPERIAL NEB   MOCLDY    53  38  56 NE7       30.07S
MCCOOK NEB     CLOUDY    61  38  42 NE12      30.02F
AKRON CO       CLOUDY    52  40  63 E12       30.08F
BURLINGTON CO  LGT RAIN  55  49  80 NE10      30.04F
LIMON CO       CLOUDY    52  44  74 N7        30.07F
$$

...UNOFFICIAL OBSERVATIONS...

CITY           SKY/WX    TMP DP  RH WIND       PRES   REMARKS
COLBY KS       MOCLDY    57  54  88 N14       29.99F
GOVE KS          N/A     61  32  33 MISG        N/A
LENORA KS        N/A     59  32  36 MISG        N/A
NORTON KS      CLEAR     55  43  62 N16       29.96S
SHARON SPRINGS   N/A     57  52  84 MISG        N/A
KIT CARSON CO    N/A     55  51  86 MISG        N/A
YUMA CO          N/A     54  39  57 E8          N/A
$$


USA.gov is the U.S. government's official web portal to all federal, state and local government web resources and services.